STARLINK-34108, 65872

Orbit data source: Space-Track

STARLINK-34108, 65872 is a payload satellite owned by SpaceX/Seattle (US) in LEO that was launched on Fri, 03 Oct 2025 UTC via an FALCON 9 launch vehicle from the Air Force Western Test Range (AFWTR). Payload-class satellites include a variety of spacecraft equipped with specific instruments for various scientific and technological missions. These include communications satellites like Starlink; space stations such as the ISS; scientific satellites like the Hubble; Earth observation satellites from companies like Planet Labs, Umbra, and HawkEye 360; GPS; miniature CubeSats for education and research; and military/defense satellites.

Loading next visibility...
Identifier
65872, 2025-223U
Orbit
LEO
Country
Flag of USUS
Related business
Manufacturer
SpaceX/Seattle
Mission
Operational spacecraft
Bus & Motor
STARLINK V2MO, Unknown motor
Mass
575 kg wet, ~530 kg dry
Launch date (UTC)
2025-10-03 (2 weeks ago)
Launch vehicle
FALCON 9
Launch site
Air Force Western Test Range (AFWTR)
Object type
Payload
Rocket body
Debris
Shape & HBR
Unknown
Radar Cross Section
RCS unknown

Expand to show TLE details & history
Last TLE update: 8 hours ago

TLE from 8 hours ago
0 STARLINK-34108
1 65872U 25223U   25291.14313891 -.00850617  00000-0 -77903-2 0  9998
2 65872  53.1574 240.3715 0000445  61.5234 298.5828 15.69649751  2323
Epoch: 2025-10-18T03:26Z
TLE epoch observation values (Epoch: 2025-10-18T03:26:07.201Z)
Latitude
-0.00009°
Longitude
161.96304°
Altitude
360.67 km
Speed
7.694 km/s
True Right ascension
16h 01m 29s
True Declination
0° 00' 00"
Sunlit
Object was in daylight at epoch
Visualization orbit readout
Latitude
Unknown
Longitude
Unknown
Altitude
Unknown
Speed
Unknown
Apparent Right ascension
Unknown
Apparent Declination
Unknown
Sunlit
N/A
Visualization observer readout
Local Sidereal Time
05:51:00
Azimuth
Unknown
Elevation
Unknown
Doppler factor
Unknown
Orbital elements
Apogee altitude
360.46 km
Perigee altitude
359.86 km
Semi-major axis
6,738.297 km
Eccentricity
0.00004
Inclination
53.1574°
RAAN
240.3715°
Arg. of periapsis
61.5234°
True anomaly
298.57832°
Mean anomaly
298.5828°
Eccentric anomaly
298.58056°
Mean motion
3.9239 °/min
Orbital period
91.75 mins
BSTAR
-0.0077903
Loading maneuver chart data...
Computing Atmospheric mass density...
Loading historical data...
Loading historical data...
Loading historical data...
Loading historical data...
Loading historical data...
Loading historical data...
Loading historical data...

Documentation

Showing up to 5 results
|